This is the latest recevied weather packets stored in our database for station/object KV9E. If no packets are shown the sender has not sent any weather packets the latest 10 day(s).
| Time | Temp. | Humidity | Pressure | Rain* | Wind** | Luminosity | Snow |
|---|---|---|---|---|---|---|---|
| 1777596977 | 10.56° C | 59% | 1014.1 hPa | 0 mm | - | 0 W/m² | - |
| 1777596675 | 10.56° C | 61% | 1014.2 hPa | 0 mm | - | 0 W/m² | - |
| 1777596371 | 10.56° C | 61% | 1014.1 hPa | 0 mm | - | 0 W/m² | - |
| 1777596069 | 10.56° C | 57% | 1014 hPa | 0 mm | - | 0 W/m² | - |
| 1777595764 | 10.56° C | 60% | 1014 hPa | 0 mm | - | 1 W/m² | - |
| 1777595459 | 11.11° C | 61% | 1014.1 hPa | 0 mm | - | 2 W/m² | - |
| 1777595155 | 11.11° C | 59% | 1014.1 hPa | 0 mm | - | 3 W/m² | - |
| 1777594852 | 11.11° C | 59% | 1014 hPa | 0 mm | - | 5 W/m² | - |
| 1777594549 | 11.67° C | 60% | 1013.6 hPa | 0 mm | - | 6 W/m² | - |
| 1777594245 | 11.67° C | 58% | 1013.6 hPa | 0 mm | - | 11 W/m² | - |
| 1777593940 | 11.67° C | 58% | 1013.5 hPa | 0 mm | - | 12 W/m² | - |
| 1777593637 | 11.67° C | 57% | 1013.7 hPa | 0 mm | - | 16 W/m² | - |
| 1777593333 | 11.67° C | 57% | 1013.5 hPa | 0 mm | - | 23 W/m² | - |
| 1777593027 | 11.67° C | 54% | 1013.4 hPa | 0 mm | - | 23 W/m² | - |
| 1777592726 | 12.22° C | 56% | 1013.5 hPa | 0 mm | - | 26 W/m² | - |
| 1777592423 | 12.22° C | 56% | 1013.6 hPa | 0 mm | - | 30 W/m² | - |
| 1777592118 | 12.22° C | 55% | 1013.6 hPa | 0 mm | - | 32 W/m² | - |
| 1777591816 | 12.78° C | 53% | 1013.6 hPa | 0 mm | - | 42 W/m² | - |
| 1777591511 | 12.78° C | 55% | 1013.6 hPa | 0 mm | - | 33 W/m² | - |
| 1777591208 | 12.78° C | 54% | 1013.5 hPa | 0 mm | - | 31 W/m² | - |
| 1777590902 | 13.33° C | 52% | 1013.7 hPa | 0 mm | - | 47 W/m² | - |
| 1777590599 | 13.89° C | 53% | 1013.7 hPa | 0 mm | - | 67 W/m² | - |
| 1777590295 | 14.44° C | 49% | 1013.5 hPa | 0 mm | - | 79 W/m² | - |
| 1777589992 | 13.89° C | 52% | 1013.8 hPa | 0 mm | - | 104 W/m² | - |
| 1777589688 | 14.44° C | 48% | 1013.7 hPa | 0 mm | - | 149 W/m² | - |
* Rain latest hour (hover to see other rain measurements)
** Current wind speed in m/s (hover to see current wind gust speed)